Regional Weather Roundup
Issued by NWS Wakefield, VA

Home | Current Version | Previous Version | Graphics & Text | Print | Product List | Glossary On
Versions: 1 2 3 4 5 6 7 8 9 10 11 12 13 14 15 16 17 18 19 20 21 22 23 24 25 26 27 28 29 30 31 32 33 34 35 36 37 38 39 40 41 42 43 44 45 46 47 48 49 50
000
ASUS41 KAKQ 162315
RWRAKQ

REGIONAL WEATHER ROUNDUP
NATIONAL WEATHER SERVICE WAKEFIELD VA
600 PM EST MON JAN 16 2017

Note: "fair" indicates few or no clouds below 12,000 feet with no
significant weather and/or obstructions to visibility. * = Denotes
station may not report precipitation (e.g., rain,snow,etc.),
thunder or fog.

VAZ042-051-052>054-056-170000-
NORTHERN VIRGINIA

CITY           SKY/WX    TMP DP  RH WIND       PRES   REMARKS
WASH NATIONAL  CLOUDY    44  32  62 S6        30.37F
DULLES         CLOUDY    43  33  68 SE5       30.35F
FORT BELVOIR   CLOUDY    43  32  63 SE3       30.37S
QUANTICO       CLOUDY    42  36  79 S6        30.38S
FREDERICKSBRG* CLOUDY    44  37  77 S3        30.36S
STAFFORD*      CLOUDY    43  35  74 CALM      30.40F
WARRENTON      CLOUDY    44  37  74 SE3       30.35S
CULPEPER*      CLOUDY    44  40  87 SE3       30.37S
MANASSAS*      CLOUDY   N/A N/A N/A S6        30.37S
LEESBURG*      CLOUDY    45  43  93 MISG      30.35F
WINCHESTER     CLOUDY    39  36  87 SE3       30.31F
FRONT ROYAL*   CLOUDY    41  37  87 CALM      30.30S
LURAY*         CLOUDY    46  43  87 SW5       30.29F
$$

VAZ048-049-060>072-079>083-170000-
CENTRAL AND SOUTH CENTRAL VIRGINIA

CITY           SKY/WX    TMP DP  RH WIND       PRES   REMARKS
RICHMOND       CLOUDY    43  38  82 SE3       30.37F
CHESTERFIELD*  CLOUDY    43  25  49 CALM      30.39F
PETERSBURG*    NOT AVBL
HANOVER        CLOUDY    43  36  76 SE3       30.38F
TAPPAHANNOCK*  CLOUDY    44  28  52 SE3       30.38S
QUINTON*       CLOUDY    43  38  84 MISG      30.38S
CHARLOTTSVILLE CLOUDY    44  42  93 S5        30.33F FOG
GORDONSVILLE*  CLOUDY    42  41  95 CALM      30.34F
ORANGE*          N/A     43  43 100 CALM      30.36F
LOUISA*        CLOUDY    46  43  87 CALM      30.34S
BUMPASS*       CLOUDY    42  40  92 CALM      30.36S
FARMVILLE*     CLOUDY    46  43  90 CALM      30.34F
CREWE*         CLOUDY    44  44 100 CALM      30.36S
FORT PICKETT*  CLOUDY    43  40  88 CALM      30.37S
CHASE CITY*    CLOUDY    46  38  74 CALM      30.35F
CLARKSVILLE*   CLOUDY    45  37  76 CALM      30.36S
SOUTH HILL*    CLOUDY    45  40  82 CALM      30.42S
LAWRENCEVILLE* CLOUDY    44  40  87 CALM      30.36S
EMPORIA*       CLOUDY    41  37  87 CALM      30.39F
$$

VAZ088>098-170000-
SOUTHEAST VIRGINIA

CITY           SKY/WX    TMP DP  RH WIND       PRES   REMARKS
NORFOLK        CLOUDY    43  38  82 CALM      30.39S
VIRGINIA BEACH CLOUDY    43  37  79 CALM      30.39S
NORFOLK NAVAL  CLOUDY    43  37  79 E3        30.41S
WEST POINT*    CLOUDY    43  36  77 CALM      30.40S
SALUDA*        CLOUDY    42  37  84 CALM      30.38F
NEWPORT NEWS   CLOUDY    43  36  76 E6        30.39F
LANGLEY AFB    CLOUDY    43  35  75 CALM      30.39S
FORT EUSTIS    CLOUDY    43  37  78 CALM      30.36F
WILLIAMSBURG*  CLOUDY    45  36  70 CALM      30.40S
HR EXEC AP*    CLOUDY    45  37  76 CALM      30.37F
FRANKLIN*      CLOUDY    44  37  77 CALM      30.39S
US460-WAKEFLD  CLOUDY    44  38  79 CALM      30.38F
$$

VAZ020-022-025-037-045-170000-
WEST CENTRAL AND SOUTHWEST VIRGINIA

CITY           SKY/WX    TMP DP  RH WIND       PRES   REMARKS
STAUNTON*      MOCLDY    42  39  91 CALM      30.32R
WAYNESBORO*    CLOUDY    41  39  93 CALM      30.31R
HOT SPRINGS VA LGT RAIN  48  48 100 SW8       30.26S
LYNCHBURG      CLOUDY    42  40  92 CALM      30.34F
DANVILLE       CLOUDY    46  36  68 SE3       30.34S
SOUTH BOSTON*  FAIR      46  35  66 CALM      30.35S
MARTINSVILLE   CLOUDY    49  41  74 CALM      30.35S
ROANOKE        CLOUDY    45  42  89 CALM      30.35S
BLACKSBURG     FOG       42  42 100 SE5       30.33S VSB 1/4
DUBLIN*        CLOUDY    46  46 100 CALM      30.31S FOG
MARION*        CLOUDY    51  50  96 E6        30.29F FOG
HILLSVILLE*    FOG       42  42 100 CALM      30.28F VSB 1/4
RICHLANDS*     CLOUDY   N/A N/A N/A S3        30.25S
WISE*          CLOUDY    57  46  67 CALM      30.25S
ABINGDON*      CLOUDY    61  46  58 CALM      30.24S
$$

MDZ021>025-VAZ099-100-170000-
SOUTHERN MARYLAND AND THE DELMARVA PENINSULA

CITY           SKY/WX    TMP DP  RH WIND       PRES   REMARKS
PATUXENT RIVER CLOUDY    40  29  64 SE6       30.38F
BAY BRIDGE APT CLOUDY    41  32  70 S5        30.38F
LEONARDTOWN    CLOUDY    41  30  65 CALM      30.39S
DOVER          CLOUDY    38  34  86 E5        30.37F
GEORGETOWN     CLOUDY    42  30  62 E6        30.39F
EASTON         CLOUDY    43  28  56 CALM      30.42F
CAMBRIDGE      CLOUDY    41  30  65 CALM      30.38F
SALISBURY      CLOUDY    43  31  62 SE5       30.39S
OCEAN CITY     CLOUDY    41  30  65 CALM      30.40F
WALLOPS ISLAND CLOUDY    41  33  73 SE3       30.40F
ACCOMACK*      CLOUDY    42  35  76 CALM      30.40S
$$

NCZ012>017-030>032-170000-
NORTH CENTRAL AND EASTERN NORTH CAROLINA

CITY           SKY/WX    TMP DP  RH WIND       PRES   REMARKS
ROANOKE RAPIDS CLOUDY    45  39  81 CALM      30.38S
RALEIGH        CLOUDY    50  34  54 S7        30.37R
ELIZABETH CITY CLOUDY    46  39  76 NE7       30.40R
AHOSKIE*         N/A     44  38  80 CALM      30.39S
EDENTON*       CLOUDY    48  42  77 CALM      30.40S
CURRITUCK*     CLOUDY    45  38  77 N3        30.40S
KILL DEVIL HLS NOT AVBL
MANTEO         CLOUDY    46  41  84 N6        30.39S
CAPE HATTERAS  CLEAR     48  43  82 N7        30.37R
TARBORO*       NOT AVBL
GOLDSBORO      CLOUDY    51  42  70 CALM      30.36R
WASHINGTON     CLOUDY    48  42  79 E3        30.39S
GREENVILLE     CLOUDY    50  43  76 CALM      30.39R
NEW BERN       CLOUDY    52  44  74 SE3       30.39R
WILMINGTON     CLOUDY    55  48  77 NE5       30.36F
$$

VAZ048-170000-
ELSEWHERE

CITY           SKY/WX    TMP DP  RH WIND       PRES   REMARKS
HARRISBURG PA  CLOUDY    36  27  69 CALM      30.36S
BALTIMORE      CLOUDY    40  30  67 SE5       30.36F
ANNAPOLIS      CLOUDY    41  31  67 SE6       30.37F
ANDREWS AFB    CLOUDY    43  29  58 S6        30.35F
PHILADELPHIA   CLOUDY    39  24  55 SW6       30.39F
HENDERSON NC   CLOUDY    45  34  64 CALM      30.36S
GREENSBORO     CLOUDY    49  43  80 S8        30.33R
ROCKY MOUNT    CLOUDY    48  41  76 CALM      30.39R
$$

VAZ100-170000-
MARINE

STATION/POSITION TIME  TEMP    WIND        PRES    WAVE   SWELL
                       AIR SEA DIR/SP/G            HT/PER HT/PER
                 (UTC) (F)     (DEG/KT/KT) (MB)    (FT/S) (FT/S)
CAPE MAY NJ      2248   38 40  180/  2/  3 1028.9S
LEWES DE         2248   38 41  130/  2/  3 1029.2S
OCEAN-CITY-INLET 2248   41 43  190/  2/  3 1029.9S
WACHAPREAGUE VA  2248   41 45   60/  4/  5 1029.3F
THOMAS POINT MD  2300   39 38  160/  7/  8   N/A
GOOSES REEF MD   2250   40     180/  8/  8 1029.3F
COVE POINT MD    2248   39     180/  7/  8 1029.3F
SOLOMONS ISLAND  2248          120/  6/  7   N/A
BISHOPS HEAD MD  2248   40 41     CALM     1029.2F
PINEY POINT MD   2248          140/  7/  8   N/A
POTOMAC MD       2250   40     150/  8/ 10 1028.1F
CAMBRIDGE MD     2248   42 39  180/  2/  5 1028.2F
LEWISETTA VA     2248   42 42  160/  4/  5 1028.6F
RAPPAHANNOCK LGT 2248           60/  2/  3 1029.6F
STINGRAY PT      2250   40     120/  4/  6 1029.4F
YORK RVR RNG VA  2248   41     150/  3/  3 1028.4F
YORKTOWN VA      2248   42 42  130/  5/  6 1028.8F
JAMESTOWN VA     2250   43     130/  6/  8   N/A
DOMINION TERM VA 2248   42      80/  4/  6 1029.2F
KIPTOPEKE VA     2248      42   70/  3/  4   N/A
CHES BAY BRIDGE  2248   41 42   20/  4/  4 1029.1F
CAPE HENRY VA    2248   42      20/  4/  4   N/A
WILLOUBY STN VA  2248   41      70/  4/  4 1029.9F
S CRANEY ISL VA  2248   43      80/  5/  5 1029.1R
CAPE HENRY BUOY  2242      47                N/A     2/ 8
OFFSHORE WE BUOY 2251      49                N/A     3/ 9
64NM E OF VA BCH 2250   52 58   40/  8/ 10 1028.3S   3/ 8   3/ 8
DUCK PIER NC     2248   45 44  350/  7/  8 1028.5R
44100 DUCK FRF   2235      47                N/A     3/ 8   2/11
44056 DUCK FRF   2230      44                N/A     2/ 7
OREGON INLET NC  2248          340/  5/  7   N/A
HATTERAS NC      2248   47 54   10/ 11/ 12 1027.8S
DIAMOND SHLS NC  2250   55 73   10/ 14/ 16 1027.7R   4/ 7   2/ 7
CAPE LOOKOUT NC  2300   50      10/  5/  7 1028.1S
$$



USA.gov is the U.S. government's official web portal to all federal, state and local government web resources and services.